TimeCDT,TemperatureF,Dew PointF,Humidity,Sea Level PressureIn,VisibilityMPH,Wind Direction,Wind SpeedMPH,Gust SpeedMPH,PrecipitationIn,Events,Conditions,WindDirDegrees,DateUTC
12:53 AM,73.0,68.0,84,30.06,10.0,South,4.6,-,N/A,,Clear,170,2013-09-19 05:53:00
1:53 AM,72.0,68.0,87,30.06,10.0,SSE,4.6,-,N/A,,Clear,160,2013-09-19 06:53:00
2:53 AM,72.0,66.9,84,30.06,10.0,South,4.6,-,N/A,,Clear,170,2013-09-19 07:53:00
3:53 AM,71.1,66.9,87,30.06,10.0,SSE,4.6,-,N/A,,Clear,160,2013-09-19 08:53:00
4:53 AM,70.0,66.0,87,30.07,10.0,South,4.6,-,N/A,,Clear,170,2013-09-19 09:53:00
5:53 AM,69.1,66.0,90,30.09,10.0,Calm,Calm,-,N/A,,Clear,0,2013-09-19 10:53:00
6:53 AM,69.1,66.0,90,30.11,9.0,South,3.5,-,N/A,,Clear,170,2013-09-19 11:53:00
7:53 AM,71.1,66.0,84,30.12,10.0,SSE,5.8,-,N/A,,Clear,160,2013-09-19 12:53:00
8:53 AM,73.9,64.9,73,30.12,10.0,South,11.5,-,N/A,,Clear,190,2013-09-19 13:53:00
9:53 AM,78.1,64.9,64,30.12,10.0,SSW,9.2,-,N/A,,Clear,200,2013-09-19 14:53:00
10:53 AM,82.0,64.9,56,30.12,10.0,South,6.9,-,N/A,,Clear,190,2013-09-19 15:53:00
11:53 AM,84.9,66.0,53,30.11,10.0,South,5.8,-,N/A,,Clear,190,2013-09-19 16:53:00
12:53 PM,88.0,64.9,46,30.08,10.0,SSW,6.9,-,N/A,,Partly Cloudy,200,2013-09-19 17:53:00
1:53 PM,88.0,64.9,46,30.05,10.0,South,6.9,-,N/A,,Partly Cloudy,190,2013-09-19 18:53:00
2:53 PM,89.1,64.0,43,30.03,10.0,South,4.6,-,N/A,,Clear,190,2013-09-19 19:53:00
3:53 PM,90.0,64.0,42,30.01,10.0,South,10.4,-,N/A,,Partly Cloudy,190,2013-09-19 20:53:00
4:53 PM,90.0,63.0,40,30.00,10.0,South,10.4,-,N/A,,Clear,170,2013-09-19 21:53:00
5:53 PM,88.0,63.0,43,29.99,10.0,South,9.2,-,N/A,,Clear,170,2013-09-19 22:53:00
6:53 PM,84.0,64.0,51,29.99,10.0,SSE,8.1,-,N/A,,Clear,160,2013-09-19 23:53:00
7:53 PM,82.0,64.0,54,29.99,10.0,South,5.8,-,N/A,,Clear,170,2013-09-20 00:53:00
8:53 PM,78.1,64.0,62,30.00,10.0,South,5.8,-,N/A,,Clear,190,2013-09-20 01:53:00
9:53 PM,78.1,64.9,64,30.01,10.0,South,4.6,-,N/A,,Clear,180,2013-09-20 02:53:00
10:53 PM,75.9,64.0,67,30.02,10.0,Calm,Calm,-,N/A,,Clear,0,2013-09-20 03:53:00
11:53 PM,73.0,64.0,73,30.01,10.0,Calm,Calm,-,N/A,,Clear,0,2013-09-20 04:53:00